Location: M.A.R.S.Observatory
(35.4031°N, 81.5481°W)
Time: 21:59:15
(UTC-05:00)

SL-8 R/B - Visible Passes

Search period start: 27 November 2014 00:00
Search period end: 07 December 2014 00:00
Orbit: 659 x 670 km, 48.4° (Epoch: 27 November)

Date Brightness Start Highest point End Pass type
(mag) Time Alt. Az. Time Alt. Az. Time Alt. Az.
27 Nov 7.4 06:43:56 10° SE 06:44:50 11° SE 06:45:44 10° ESE visible
29 Nov 7.0 06:03:47 10° SSE 06:05:32 12° SE 06:07:17 10° ESE visible
30 Nov 5.7 06:32:28 10° SSW 06:36:45 33° SE 06:41:02 10° ENE visible
01 Dec 6.7 05:23:56 10° SSE 05:26:13 13° SE 05:28:29 10° E visible
02 Dec 5.3 05:53:04 10° SSW 05:57:27 36° SE 06:01:51 10° ENE visible
03 Dec 6.5 04:44:13 10° SSE 04:46:54 15° SE 04:49:34 10° E visible
03 Dec 3.7 06:24:08 10° SW 06:28:57 88° NW 06:33:46 10° NE visible
04 Dec 4.9 05:15:08 19° SSW 05:18:09 40° SE 05:22:38 10° ENE visible
05 Dec 6.4 04:08:45 15° ESE 04:08:45 15° ESE 04:10:34 10° E visible
05 Dec 3.6 05:46:51 25° WSW 05:49:40 82° NW 05:54:30 10° NE visible
06 Dec 5.1 04:40:06 36° E 04:40:06 36° E 04:43:25 10° ENE visible
06 Dec 4.3 06:18:11 17° W 06:21:29 38° NNW 06:25:59 10° NE visible
